Regional Weather Roundup
Issued by NWS

Home | Current Version | Previous Version | Graphics & Text | Print | Product List | Glossary On
Versions: 1 2 3 4 5 6 7 8 9 10 11 12 13 14 15 16 17 18 19 20 21 22 23 24 25 26 27 28 29 30 31 32 33 34 35 36 37 38 39 40 41 42 43 44 45 46 47 48 49 50
000
ASUS43 KIND 221759
RWRIN

WEATHER ROUNDUP FOR INDIANA
NATIONAL WEATHER SERVICE INDIANAPOLIS IN
200 PM EDT WED OCT 22 2014

NOTE: "FAIR" INDICATES FEW OR NO CLOUDS BELOW 12,000 FEET WITH NO
SIGNIFICANT WEATHER AND/OR OBSTRUCTIONS TO VISIBILITY.

* - STATION DOES NOT REPORT WEATHER SUCH AS PRECIPITATION OR FOG.

+ - STATION NOT QUALITY CONTROLLED BY THE NATIONAL WEATHER SERVICE.
    USE DATA WITH CAUTION...ESPECIALLY DEWPOINT AND RELATIVE
    HUMIDITY OBSERVATIONS.

INZ001>003-010>013-019-020-221900-
NORTHWEST INDIANA

CITY           SKY/WX    TMP DP  RH WIND       PRES   REMARKS
GARY /AIRPORT/ SUNNY     54  36  50 NE7       30.36F
VALPARAISO     NOT AVBL

$$

LMZ046-743>745-221900-
SOUTHERN LAKE MICHIGAN

STATION/POSITION TIME  TEMP WIND        PRES
                       AIR  DIR/SP/G
                 (UTC) (F)  (DEG/KT/KT) (MB)
MICHIGAN CITY    1700   47   20/  8/ 10   N/A

$$

INZ004-005-014>016-021>024-221900-
NORTH CENTRAL INDIANA

CITY           SKY/WX    TMP DP  RH WIND       PRES   REMARKS
ELKHART        SUNNY     52  36  54 E5        30.34F
GOSHEN         MOSUNNY   49  40  71 E9        30.34F
6HR MIN TEMP:  32; 6HR MAX TEMP:  50;

SOUTH BEND     SUNNY     54  32  43 N9        30.35F
6HR MIN TEMP:  32; 6HR MAX TEMP:  54;


$$

INZ006>009-017-018-025>027-221900-
NORTHEAST INDIANA

CITY           SKY/WX    TMP DP  RH WIND       PRES   REMARKS
ANGOLA *+      CLOUDY    45  32  61 NE6       30.33F
FORT WAYNE     PTSUNNY   50  40  68 NE8       30.33F
6HR MIN TEMP:  40; 6HR MAX TEMP:  52;


$$

INZ028-029-035-036-043>045-051>053-221900-
WEST CENTRAL INDIANA

CITY           SKY/WX    TMP DP  RH WIND       PRES   REMARKS
GREENCASTLE +  SUNNY     54  41  62 CALM      30.31F
LAFAYETTE      SUNNY     53  36  52 E7        30.33F
6HR MIN TEMP:  33; 6HR MAX TEMP:  54;

TERRE HAUTE    SUNNY     57  40  52 VRB6      30.31F
6HR MIN TEMP:  34; 6HR MAX TEMP:  57;


$$

INZ030>032-037>040-046>048-054>057-064-065-221900-
CENTRAL INDIANA

CITY           SKY/WX    TMP DP  RH WIND       PRES   REMARKS
ANDERSON       PTSUNNY   52  39  62 NE6       30.32F
INDIANAPOLIS   MOSUNNY   54  40  59 VRB7      30.30F
6HR MIN TEMP:  38; 6HR MAX TEMP:  54;

-EAGLE CREEK   SUNNY     54  40  59 VRB6      30.30F
6HR MIN TEMP:  38; 6HR MAX TEMP:  54;

KOKOMO *+      SUNNY     54  39  58 NE6       30.32F VSB 1
MT COMFORT *+  MOSUNNY   54  32  43 E5        30.31F
SHELBYVILLE    PTSUNNY   56  40  55 N9        30.30F
6HR MIN TEMP:  44; 6HR MAX TEMP:  56;


$$

INZ033-034-041-042-049-050-058-059-221900-
EAST CENTRAL INDIANA

CITY           SKY/WX    TMP DP  RH WIND       PRES   REMARKS
MUNCIE         MOSUNNY   52  40  63 E5        30.31F
6HR MIN TEMP:  42; 6HR MAX TEMP:  53;


$$

INZ060-061-067>069-081>083-085>088-221900-
SOUTHWEST INDIANA

CITY           SKY/WX    TMP DP  RH WIND       PRES   REMARKS
EVANSVILLE     SUNNY     58  39  49 NE7       30.29F
6HR MIN TEMP:  42; 6HR MAX TEMP:  59;

HUNTINGBURG *+ SUNNY     57  39  51 E8        30.29F
6HR MIN TEMP:  37; 6HR MAX TEMP:  57;


$$

INZ062-063-066-070>080-084-089>092-221900-
SOUTH CENTRAL AND SOUTHEAST INDIANA

CITY           SKY/WX    TMP DP  RH WIND       PRES   REMARKS
BLOOMINGTON    SUNNY     57  40  52 N8        30.30F
6HR MIN TEMP:  39; 6HR MAX TEMP:  58;


$$




USA.gov is the U.S. government's official web portal to all federal, state and local government web resources and services.